Siga o Apolo11 no Facebook   Siga o Apolo11 no Twiiter
Ciência, Espaço e Tecnologia




Elementos Keplerianos formato Two Line

Para que um programa de rastreio possa saber a localização exata de qualquer satélite no espaço e assim poder rastreá-lo corretamente, é necessário que ele seja carregado com algumas informações.

Estas informações são chamadas de Elementos Orbitais ou Elementos Keplerianos e consistem em 2 linhas com dezenas de números. Esses números nada mais são que os parâmetros orbitais do satélite, tais como altitude, atitude, excentricidade da órbita, número de órbitas por dia, etc.

Com base nestas informações o programa é capaz de determinar com bastante exatidão a posição de qualquer satélite no espaço e nos informar em qual horário este estará dentro do alcance de nossa estação. Para que isso seja feito com precisão é necessário que os dados estejam sempre bem atualizadas.

Devido aos parâmetros orbitais serem descritos em 2 linhas, estes formato é também conhecido internacionalmente por 2line (leia-se Two Line”).

Para atualizar seu programa de rastreio basta copiar os dados disponibilizados e fornece-los ao programa. Nossos elementos orbitais são atualizados diariamente.

NOAATodos os satélites ambientais da série NOAA
30 DiasSatélites lançados nos últimos 30 dias
ISSSatélites e foguetes relacionados à Estação Espacial Internacional
HAMSatélites construídos por radiomadores
CUBESatélites tipo cubo, com 10 centímetros de lado
METEOSatélites voltados à previsão do tempo
EDUSatélites construídos e operados por universidades
VIS100 satélites mais brilhantes que podem ser vistos a olho nú



Satélites série NOAA
NOAA 1 [-]              
1 04793U 70106A   22277.44953285 -.00000043  00000+0  10245-5 0  9991
2 04793 101.5453 338.4680 0031976 110.2770 261.5394 12.54007802371257
NOAA 2 (ITOS-D) [-]     
1 06235U 72082A   22277.69852497 -.00000001  00000+0  28303-3 0  9995
2 06235 101.9658 260.6556 0003702 224.9651 308.4955 12.53152103285652
NOAA 3 [-]              
1 06920U 73086A   22277.75219715 -.00000014  00000+0  23455-3 0  9995
2 06920 102.2199 259.6540 0006732  87.5479 321.4695 12.40348900214347
NOAA 4 [-]              
1 07529U 74089A   22277.75706182 -.00000011  00000+0  22288-3 0  9994
2 07529 101.9265 257.7594 0008621 255.7729 278.0082 12.53160835190238
NOAA 5 [-]              
1 09057U 76077A   22277.69564222 -.00000005  00000+0  30872-3 0  9992
2 09057 102.1124 244.5671 0009724 300.3178 232.7914 12.37774694 87257
TIROS N [-]             
1 11060U 78096A   22278.18015189  .00000201  00000+0  11800-3 0  9997
2 11060  98.6238 328.9547 0010625 181.7973 178.3166 14.18418896487409
NOAA 6 [-]              
1 11416U 79057A   22278.03566572  .00000319  00000+0  13083-3 0  9996
2 11416  98.6646 289.0656 0009343 298.6202  61.4042 14.33806395257438
NOAA 7 [-]              
1 12553U 81059A   22277.79260616  .00000054  00000+0  49354-4 0  9993
2 12553  98.9878 323.5082 0011867 160.4841 199.6789 14.17346022133283
NOAA 8 [-]              
1 13923U 83022A   22277.73942837  .00000217  00000+0  10364-3 0  9992
2 13923  98.6963 267.9032 0014007 248.8915 111.0769 14.28836943 58016
NOAA 9 [-]              
1 15427U 84123A   22278.16095778  .00000181  00000+0  11464-3 0  9999
2 15427  99.0589 252.3321 0014206 211.6725 159.3442 14.16228105952370
NOAA 10 [-]             
1 16969U 86073A   22277.76365905  .00000210  00000+0  10148-3 0  9995
2 16969  98.5791 261.9578 0012232 357.9151 175.6445 14.28226354876438
NOAA 11 [-]             
1 19531U 88089A   22277.70845215  .00000096  00000+0  70414-4 0  9998
2 19531  98.4355 260.8396 0010336 219.6800 140.3619 14.15324765756277
NOAA 12 [-]             
1 21263U 91032A   22277.88115607  .00000149  00000+0  80371-4 0  9991
2 21263  98.5208 274.6649 0014103  23.7994 336.3835 14.26014327632326
NOAA 13 [-]             
1 22739U 93050A   22277.71952909  .00000198  00000+0  12878-3 0  9998
2 22739  98.5178 252.1318 0010238  36.0107 324.1754 14.12865955502487
NOAA 14 [-]             
1 23455U 94089A   22277.86527364  .00000071  00000+0  58402-4 0  9990
2 23455  98.4430 298.6280 0009731  17.0257 343.1242 14.14211301432170
NOAA 15 [B]             
1 25338U 98030A   22278.14738110  .00000202  00000+0  10258-3 0  9999
2 25338  98.6369 306.2114 0009933 343.8443  16.2419 14.26177481268903
NOAA 16 [-]             
1 26536U 00055A   22277.84508949  .00000095  00000+0  73033-4 0  9992
2 26536  98.6246 332.9127 0010023 207.9528 152.1108 14.13346802432802
NOAA 17 [-]             
1 27453U 02032A   22278.23902872  .00000188  00000+0  98858-4 0  9990
2 27453  98.6808 222.2595 0011100 317.3163  42.7153 14.25146939 54506
NOAA 18 [B]             
1 28654U 05018A   22278.05215121  .00000226  00000+0  14575-3 0  9991
2 28654  98.9398 348.3543 0014527  25.9876 334.2022 14.12784359895540
NOAA 19 [+]             
1 33591U 09005A   22278.20752196  .00000193  00000+0  12908-3 0  9993
2 33591  99.1387 314.6034 0013131 237.6151 122.3750 14.12617155703941
SUOMI NPP [+]           
1 37849U 11061A   22278.16671365  .00000138  00000+0  86252-4 0  9994
2 37849  98.7388 215.2225 0001078  78.6619  34.1318 14.19547998566754
NOAA 20 [+]             
1 43013U 17073A   22278.24963711  .00000105  00000+0  70737-4 0  9996
2 43013  98.7227 215.1111 0001621  91.0884 269.0478 14.19547370252804


IMAGENS DE SATÉLITES !    Clique e conheça nosso Vídeo Workshop de sensoriamento remoto e imagens meteorológicas.
Apolo11.com - Todos os direitos reservados - 2001 - 2022
Política de Privacidade

"Dei comida aos pobres e chamaram-me santo. Perguntei por que tinham fome e chamaram-me comunista" - Dom Helder Camara